Weather reports worldwide

Advertisment
Kinlochewe, United Kingdom (99092): temperature & dewpoint: 10.12.2017 05:00:00 - 16.12.2017 05:00:00 (GMT)Kinlochewe, United Kingdom (99092): temperature -20cm: 10.12.2017 05:00:00 - 16.12.2017 05:00:00 (GMT)Kinlochewe, United Kingdom (99092): precipitation: 10.12.2017 05:00:00 - 16.12.2017 05:00:00 (GMT)
Date & Time tt [°C] td [°C] tt -20cm [°C] rr [mm]
16.12.2017 05:00:00 - - - -
16.12.2017 04:00:00 -0,8 -1,0 - 0,0
16.12.2017 03:00:00 -1,1 -1,4 - 0,0
16.12.2017 02:00:00 -0,5 -0,8 - 0,0
16.12.2017 01:00:00 -0,7 -1,0 - 0,0
16.12.2017 00:00:00 0,2 -0,2 - 0,0
15.12.2017 23:00:00 0,6 0,1 - 0,0
15.12.2017 22:00:00 1,8 1,1 - 0,6
15.12.2017 21:00:00 1,5 1,2 - 0,4
15.12.2017 20:00:00 0,9 0,3 - 1,0
15.12.2017 19:00:00 1,7 0,1 - 0,2
15.12.2017 18:00:00 - - - 0,2
15.12.2017 17:00:00 2,7 1,3 - 0,2
15.12.2017 16:00:00 2,4 1,1 - 0,8
15.12.2017 15:00:00 3,4 1,6 - 0,6
15.12.2017 14:00:00 3,0 1,5 - 0,2
15.12.2017 13:00:00 3,6 2,6 - 0,6
15.12.2017 12:00:00 3,0 1,6 - 0,4
15.12.2017 11:00:00 3,7 1,7 - 0,0
15.12.2017 10:00:00 3,3 0,7 - 0,2
15.12.2017 09:00:00 4,2 0,5 3,7 0,0
15.12.2017 08:00:00 4,0 1,1 - 0,0
15.12.2017 07:00:00 4,3 0,6 - 0,2
15.12.2017 06:00:00 4,3 -0,4 - 0,0
15.12.2017 05:00:00 4,9 0,8 - 0,0
15.12.2017 04:00:00 4,7 0,9 - 0,0
15.12.2017 03:00:00 3,8 2,3 - 0,4
15.12.2017 02:00:00 4,5 2,2 - 0,4
15.12.2017 01:00:00 4,0 2,6 - 2,2
15.12.2017 00:00:00 2,9 1,7 - 2,0
14.12.2017 23:00:00 2,4 1,3 - 0,0
14.12.2017 22:00:00 3,5 0,9 - 0,0
14.12.2017 21:00:00 3,4 0,7 - 0,0
14.12.2017 20:00:00 4,0 1,1 - 0,0
14.12.2017 19:00:00 4,9 1,6 - 0,0
14.12.2017 18:00:00 3,1 2,6 - 0,8
14.12.2017 17:00:00 2,6 2,1 - 2,4
14.12.2017 16:00:00 1,8 1,5 - 0,2
14.12.2017 15:00:00 1,0 0,6 - 0,0
14.12.2017 14:00:00 0,9 0,3 - 0,0
14.12.2017 13:00:00 1,7 1,0 - 0,0
14.12.2017 12:00:00 1,4 0,4 - 0,0
14.12.2017 11:00:00 -0,1 -0,6 - 0,0
14.12.2017 10:00:00 -0,8 -1,4 - 0,0
14.12.2017 09:00:00 -1,1 -1,6 4,0 0,0
14.12.2017 08:00:00 -0,4 -0,6 - 0,0
14.12.2017 07:00:00 0,1 0,0 - 0,0
14.12.2017 06:00:00 0,2 0,0 - 0,0
14.12.2017 05:00:00 0,2 0,0 - 0,0
14.12.2017 04:00:00 -0,1 -0,4 - 0,0
14.12.2017 03:00:00 0,3 0,0 - 0,6
14.12.2017 02:00:00 1,2 0,7 - 1,0
14.12.2017 01:00:00 1,0 0,8 - 1,4
14.12.2017 00:00:00 0,3 -0,1 - 0,6
13.12.2017 23:00:00 1,4 0,9 - 1,0
13.12.2017 22:00:00 1,0 0,6 - 0,6
13.12.2017 21:00:00 1,1 0,4 - 0,2
13.12.2017 20:00:00 1,9 0,5 - 0,0
13.12.2017 19:00:00 1,5 0,3 - 0,2
13.12.2017 18:00:00 1,4 0,1 - 0,0
13.12.2017 17:00:00 0,6 -0,6 - 0,6
13.12.2017 16:00:00 2,5 -0,8 - 0,0
13.12.2017 15:00:00 2,1 0,4 - 0,2
13.12.2017 14:00:00 3,4 -0,3 - 1,0
13.12.2017 13:00:00 3,7 0,3 - 0,0
13.12.2017 12:00:00 2,3 1,0 - 1,4
13.12.2017 11:00:00 4,6 -0,5 - 0,0
13.12.2017 10:00:00 4,3 0,1 - 0,2
13.12.2017 09:00:00 4,6 0,1 4,2 0,0
13.12.2017 08:00:00 4,2 1,1 - 0,8
13.12.2017 07:00:00 3,8 1,8 - 4,2
13.12.2017 06:00:00 4,6 2,9 - 2,4
13.12.2017 05:00:00 3,5 1,7 - 0,4
13.12.2017 04:00:00 4,4 1,6 - 0,4
13.12.2017 03:00:00 4,8 0,9 - 0,4
13.12.2017 02:00:00 4,0 0,6 - 0,4
13.12.2017 01:00:00 4,3 1,4 - 0,6
13.12.2017 00:00:00 5,2 1,0 - 1,0
12.12.2017 23:00:00 4,8 1,4 - 1,2
12.12.2017 22:00:00 3,9 2,9 - 1,6
12.12.2017 21:00:00 2,6 1,6 - 1,0
12.12.2017 20:00:00 3,4 1,7 - 1,4
12.12.2017 19:00:00 3,0 1,5 - 5,4
12.12.2017 18:00:00 3,2 1,5 - 0,0
12.12.2017 17:00:00 3,2 1,2 - 0,0
12.12.2017 16:00:00 2,4 1,3 - 0,0
12.12.2017 15:00:00 2,4 1,4 - 0,0
12.12.2017 14:00:00 2,0 0,7 - 0,0
12.12.2017 13:00:00 1,4 0,4 - -
12.12.2017 12:00:00 0,3 -0,2 - 0,0
12.12.2017 11:00:00 -0,2 -1,0 - 0,0
12.12.2017 10:00:00 -0,8 -1,4 - 0,0
12.12.2017 09:00:00 -2,2 -2,8 4,7 0,0
12.12.2017 08:00:00 -2,2 -2,9 - 0,0
12.12.2017 07:00:00 -2,6 -3,4 - 0,0
12.12.2017 06:00:00 -1,8 -2,5 - 0,0
12.12.2017 05:00:00 -2,0 -2,6 - 0,0
12.12.2017 04:00:00 -1,8 -2,3 - 0,0
12.12.2017 03:00:00 -2,5 -2,8 - 0,0
12.12.2017 02:00:00 -3,5 -3,9 - 0,0
12.12.2017 01:00:00 -3,8 -4,3 - 0,0
12.12.2017 00:00:00 -3,5 -4,0 - 0,0
11.12.2017 23:00:00 -3,4 -3,9 - 0,0
11.12.2017 22:00:00 -3,1 -3,5 - 0,0
11.12.2017 21:00:00 -3,1 -3,5 - 0,0
11.12.2017 20:00:00 -2,2 -2,5 - 0,0
11.12.2017 19:00:00 -2,2 -2,7 - 0,0
11.12.2017 18:00:00 -1,6 -2,1 - 0,0
11.12.2017 17:00:00 -1,0 -1,4 - 0,0
11.12.2017 16:00:00 -1,1 -1,5 - 0,0
11.12.2017 15:00:00 0,3 -0,3 - 0,0
11.12.2017 14:00:00 1,0 -0,3 - 0,0
11.12.2017 13:00:00 3,3 1,8 - 0,0
11.12.2017 12:00:00 2,0 1,9 - 0,0
11.12.2017 11:00:00 0,6 0,6 - 0,0
11.12.2017 10:00:00 0,1 0,1 - 0,0
11.12.2017 09:00:00 0,1 0,1 4,7 0,0
11.12.2017 08:00:00 0,2 0,1 - 0,0
11.12.2017 07:00:00 0,0 -0,1 - 0,0
11.12.2017 06:00:00 -0,3 -0,4 - 0,0
11.12.2017 05:00:00 -1,3 -1,5 - 0,0
11.12.2017 04:00:00 -1,2 -1,4 - 0,0
11.12.2017 03:00:00 -1,5 -1,7 - 0,0
11.12.2017 02:00:00 -1,6 -1,8 - 0,0
11.12.2017 01:00:00 -1,5 -1,7 - 0,0
11.12.2017 00:00:00 -0,1 -0,3 - 0,0
10.12.2017 23:00:00 0,3 0,2 - 0,0
10.12.2017 22:00:00 0,2 0,1 - 0,0
10.12.2017 21:00:00 -0,6 -0,9 - 0,0
10.12.2017 20:00:00 -1,5 -1,7 - 0,0
10.12.2017 19:00:00 -3,2 -3,6 - 0,0
10.12.2017 18:00:00 -3,7 -4,4 - 0,0
10.12.2017 17:00:00 -3,4 -4,1 - 0,0
10.12.2017 16:00:00 -3,3 -4,2 - 0,0
10.12.2017 15:00:00 -3,6 -5,0 - 0,0
10.12.2017 14:00:00 -1,8 -3,6 - 0,0
10.12.2017 13:00:00 -2,4 -4,0 - 0,0
10.12.2017 12:00:00 -2,9 -4,5 - 0,0
10.12.2017 11:00:00 -3,7 -4,7 - 0,0
10.12.2017 10:00:00 -4,3 -4,9 - 0,0
10.12.2017 09:00:00 -4,7 -5,4 4,9 0,0
10.12.2017 08:00:00 -3,4 -3,9 - 0,0
10.12.2017 07:00:00 -2,9 -3,5 - 0,0
10.12.2017 06:00:00 -2,7 -3,3 - 0,0
10.12.2017 05:00:00 -3,0 -3,5 - 0,0

tt = temperature
td = dewpoint
tt -20cm = temperature -20cm
rr = precipitation

Next stations